Home > Weather > Lindau (Bodensee) > Past weeks

Flag for Germany Weather for the Past 2 Weeks in Lindau (Bodensee), Bavaria, Germany

Now
43 °F

Sunny.


Feels Like: 41 °F
Forecast: 38 / 63 °F
Wind: 3 mph from North

Location: Saint Gallen-Altenrhein

Current Time: Apr 29, 2016 at 10:09:20 AM

Latest Report: Apr 29, 2016 at 9:20 AM


Visibility: 10 mi

Pressure: 30.07 "Hg

Humidity: 76%

Dew Point: 36 °F

Location of Lindau (Bodensee)Location

Historic Weather in Lindau (Bodensee) — Graph

°F

Lindau (Bodensee) Temperature Yesterday

Maximum temperature yesterday: 54 °F (at 3:50 PM)
Minimum temperature yesterday: 32 °F (at 1:50 AM)
Average temperature yesterday: 41 °F

High & Low Weather Summary for the Past Weeks

 TemperatureHumidityPressure
High66 °F (Apr 22, 3:50 PM)100% (Apr 16, 3:20 AM)30.33 "Hg (Apr 16, 3:20 AM)
Low32 °F (Apr 28, 1:50 AM)37% (Apr 22, 6:20 PM)29.62 "Hg (Apr 16, 11:50 PM)
Average46 °F79%29.96 "Hg
* Reported Apr 14 8:50 AM — Apr 29 8:50 AM, Lindau (Bodensee), Weather by CustomWeather, © 2016

Note: Actual official high and low records may vary slightly from our data, if they occured in-between our weather recording intervals... More about our weather records

Advertising

Lindau (Bodensee) Weather History for the Previous 24 Hours

Scroll right to see more
 ConditionsComfort  
Time TempWeatherWind HumidityBarometerVisibility
8:50 AM
Fri, Apr 29
43 °FSunny.2 mph81%30.07 "Hg10 mi
8:20 AM43 °FSunny.2 mph81%30.07 "Hg10 mi
7:20 AM36 °FSunny.1 mph93%30.07 "Hg10 mi
6:50 AM34 °FClear.2 mph93%30.07 "Hg10 mi
6:20 AM36 °FClear.2 mph87%30.04 "Hg10 mi
5:50 AM34 °FClear.2 mph87%30.04 "Hg10 mi
5:20 AM32 °FClear.2 mph93%30.04 "Hg10 mi
4:20 AM32 °FChilly.3 mph93%30.04 "HgN/A
3:50 AM34 °FPassing clouds.1 mph93%30.04 "HgN/A
3:20 AM36 °FPassing clouds.1 mph93%30.04 "HgN/A
2:50 AM37 °FChilly.2 mph87%30.04 "HgN/A
2:20 AM36 °FPassing clouds.3 mph93%30.04 "HgN/A
1:50 AM39 °FOvercast.2 mph87%30.04 "HgN/A
1:20 AM41 °FOvercast.2 mph81%30.04 "HgN/A
12:50 AM39 °FOvercast.3 mph81%30.04 "HgN/A
12:20 AM39 °FOvercast.2 mph81%30.04 "HgN/A
11:50 PM
Thu, Apr 28
41 °FOvercast.3 mph70%30.04 "HgN/A
11:20 PM37 °FOvercast.3 mph75%30.04 "HgN/A
10:50 PM39 °FClear.2 mph70%30.04 "Hg10 mi
10:20 PM39 °FClear.2 mph70%30.04 "Hg10 mi
9:50 PM41 °FQuite cool.3 mph66%30.04 "HgN/A
9:20 PM41 °FPassing clouds.3 mph70%30.04 "HgN/A
8:50 PM43 °FSunny.2 mph71%30.01 "Hg10 mi
8:20 PM45 °FSunny.2 mph71%30.01 "Hg10 mi
7:50 PM48 °FSunny.5 mph58%30.01 "Hg10 mi
7:20 PM48 °FPassing clouds.5 mph58%30.01 "HgN/A
6:50 PM48 °FPassing clouds.6 mph62%30.01 "HgN/A
6:20 PM50 °FPassing clouds.7 mph54%29.98 "HgN/A
5:50 PM50 °FScattered clouds.7 mph47%29.98 "HgN/A
5:20 PM50 °FScattered clouds.5 mph40%29.98 "HgN/A
4:50 PM50 °FScattered clouds.3 mph43%29.98 "HgN/A
4:20 PM50 °FScattered clouds.5 mph37%29.98 "HgN/A
3:50 PM54 °FPassing clouds.7 mph44%29.98 "HgN/A
3:20 PM48 °FPassing clouds.8 mph43%29.98 "HgN/A
2:20 PM50 °FScattered clouds.3 mph50%29.98 "HgN/A
1:50 PM48 °FPartly sunny.6 mph46%29.98 "HgN/A
1:20 PM48 °FPartly sunny.6 mph40%29.98 "HgN/A
12:50 PM46 °FPartly sunny.6 mph53%30.01 "HgN/A
12:20 PM46 °FPartly sunny.6 mph62%30.01 "HgN/A
11:50 AM45 °FBroken clouds.3 mph66%30.01 "HgN/A
11:20 AM43 °FSunny.1 mph76%30.01 "Hg10 mi
10:20 AM39 °FSunny.2 mph81%30.01 "Hg10 mi
Weather by CustomWeather, © 2016

See weather overviewHow to use our weather pages